Flag for Canada Weather past 2 weeks in Conception Bay South, Newfoundland and Labrador, Canada

Now
50 °F

Fog.


Feels Like: 48 °F
Forecast: 53 / 57 °F
Wind: 6 mph from Northwest

Location: St. John's

Current Time: Oct 25, 2014 at 5:37:47 AM

Latest Report: Oct 25, 2014 at 4:30 AM


Visibility: 0 mi

Pressure: 29.49 "Hg

Humidity: 100%

Dew point: 50 °F

Location of Conception Bay SouthLocation

Historic Weather in Conception Bay South — Graph

°F

Conception Bay South temperature yesterday

Maximum temperature yesterday: 50 °F (at 8:30 AM)
Minimum temperature yesterday: 46 °F (at 12:30 AM)
Average temperature yesterday: 49 °F

Past Weeks' High & Low Weather Summary

 TemperatureHumidityPressure
High68 °F (Oct 19, 1:30 PM)100% (Oct 10, 7:30 AM)30.48 "Hg (Oct 10, 7:30 AM)
Low36 °F (Oct 17, 4:30 AM)55% (Oct 10, 1:30 PM)29.11 "Hg (Oct 19, 7:30 AM)
Average50 °F87%29.98 "Hg
* Reported Oct 10 4:30 AM — Oct 25 4:30 AM, Conception Bay South, Weather by CustomWeather, © 2014

Note: Actual official high and low records may vary slightly from our data, if they occured in-between our weather recording intervals... More about our weather records

Advertising

Conception Bay South weather history for previous 24 hours

 ConditionsComfort  
Time TempWeatherWind HumidityBarometerVisibility
4:30 AM
Oct 25
50 °FFog.6 mph100%29.49 "Hg1 mi
3:30 AM50 °FFog.7 mph100%29.49 "Hg1 mi
2:30 AM52 °FFog.6 mph100%29.51 "Hg1 mi
1:30 AM50 °FFog.6 mph100%29.52 "Hg1 mi
12:30 AM50 °FDrizzle. Fog.No wind100%29.54 "Hg4 mi
12:18 AM50 °FDrizzle. Fog.2 mph100%29.55 "Hg3 mi
11:30 PM
Oct 24
50 °FDrizzle. Fog.3 mph100%29.57 "Hg1 mi
10:30 PM48 °FDrizzle. Fog.2 mph100%29.59 "Hg1 mi
9:30 PM48 °FDrizzle. Fog.3 mph100%29.61 "Hg1 mi
8:30 PM50 °FLight rain. Fog.5 mph100%29.64 "Hg1 mi
7:30 PM48 °FRain. Fog.8 mph100%29.67 "Hg1 mi
6:30 PM48 °FLight rain. Fog.9 mph100%29.70 "Hg1 mi
5:30 PM48 °FLight rain. Fog.9 mph100%29.73 "Hg0 mi
4:30 PM50 °FLight rain. Fog.9 mph100%29.76 "Hg0 mi
3:30 PM50 °FLight rain. Fog.14 mph100%29.80 "Hg0 mi
2:30 PM50 °FLight rain. Fog.13 mph100%29.83 "Hg0 mi
1:30 PM50 °FDrizzle. Fog.16 mph100%29.86 "Hg0 mi
12:30 PM50 °FDrizzle. Fog.14 mph100%29.90 "Hg0 mi
11:30 AM50 °FLight rain. Fog.14 mph100%29.94 "Hg0 mi
10:30 AM50 °FLight rain. Fog.15 mph100%29.98 "Hg1 mi
9:30 AM50 °FLight rain. Fog.14 mph100%29.99 "Hg3 mi
8:30 AM50 °FLight rain. Fog.14 mph100%30.02 "Hg1 mi
7:30 AM48 °FLight rain. Fog.13 mph100%30.02 "Hg0 mi
6:30 AM48 °FSprinkles. Fog.13 mph100%30.04 "Hg1 mi
5:30 AM48 °FSprinkles. Fog.14 mph100%30.06 "Hg1 mi
Weather by CustomWeather, © 2014

See weather overviewHow to use our weather pages